Flag for Germany Weather past 2 weeks in Leverkusen, North Rhine-Westphalia, Germany

Now
37 °F

Clear.


Feels Like: 37 °F
Forecast: 35 / 55 °F
Wind: 2 mph from North

Location: Koeln / Bonn

Current Time: Mar 6, 2015 at 9:18:44 PM

Latest Report: Mar 6, 2015 at 8:50 PM


Visibility: 10 mi

Pressure: 30.54 "Hg

Humidity: 81%

Dew point: 32 °F

Location of LeverkusenLocation

Historic Weather in Leverkusen — Graph

°F

Leverkusen temperature yesterday

Maximum temperature yesterday: 46 °F (at 3:50 PM)
Minimum temperature yesterday: 36 °F (at 6:20 AM)
Average temperature yesterday: 41 °F

Past Weeks' High & Low Weather Summary

 TemperatureHumidityPressure
High54 °F (Mar 1, 1:20 PM)100% (Feb 23, 6:20 AM)30.66 "Hg (Feb 23, 6:20 AM)
Low28 °F (Feb 28, 4:20 AM)40% (Feb 28, 3:50 PM)29.39 "Hg (Feb 21, 4:20 AM)
Average40 °F78%29.96 "Hg
* Reported Feb 19 8:20 PM — Mar 6 8:20 PM, Leverkusen, Weather by CustomWeather, © 2015

Note: Actual official high and low records may vary slightly from our data, if they occured in-between our weather recording intervals... More about our weather records

Advertising

Leverkusen weather history for previous 24 hours

 ConditionsComfort  
Time TempWeatherWind HumidityBarometerVisibility
8:20 PM
Fri, Mar 6
39 °FClear.5 mph75%30.54 "Hg10 mi
7:50 PM41 °FPassing clouds.3 mph76%30.54 "HgN/A
7:20 PM41 °FPassing clouds.1 mph76%30.57 "HgN/A
6:50 PM45 °FPassing clouds.2 mph66%30.57 "HgN/A
6:20 PM45 °FPassing clouds.5 mph66%30.57 "HgN/A
5:50 PM46 °FPartly sunny.6 mph62%30.57 "HgN/A
5:20 PM48 °FBroken clouds.3 mph58%30.54 "HgN/A
4:50 PM48 °FBroken clouds.3 mph58%30.54 "HgN/A
4:20 PM48 °FBroken clouds.3 mph58%30.54 "HgN/A
3:50 PM48 °FPartly sunny.5 mph58%30.57 "HgN/A
3:20 PM48 °FPartly sunny.3 mph58%30.57 "HgN/A
2:50 PM48 °FPartly sunny.6 mph54%30.57 "HgN/A
2:20 PM48 °FPartly sunny.5 mph58%30.57 "HgN/A
1:50 PM48 °FPartly sunny.3 mph62%30.57 "HgN/A
1:20 PM46 °FPartly sunny.1 mph66%30.60 "HgN/A
12:50 PM45 °FPartly sunny.1 mph66%30.60 "HgN/A
12:20 PM45 °FPartly sunny.1 mph71%30.63 "HgN/A
11:50 AM43 °FPartly sunny.3 mph71%30.63 "HgN/A
11:20 AM43 °FPartly sunny.6 mph71%30.63 "HgN/A
10:50 AM41 °FPartly sunny.5 mph76%30.63 "HgN/A
10:20 AM39 °FPartly sunny.5 mph81%30.63 "HgN/A
9:50 AM39 °FPartly sunny.6 mph81%30.63 "HgN/A
9:20 AM37 °FPartly sunny.6 mph87%30.63 "HgN/A
8:50 AM37 °FPartly sunny.7 mph87%30.63 "HgN/A
8:20 AM36 °FPartly sunny.7 mph87%30.63 "HgN/A
7:50 AM36 °FPartly sunny.7 mph87%30.63 "HgN/A
7:20 AM34 °FPartly sunny.5 mph93%30.63 "HgN/A
6:50 AM36 °FPassing clouds.3 mph87%30.63 "HgN/A
6:20 AM34 °FPassing clouds.5 mph93%30.63 "HgN/A
5:50 AM34 °FOvercast.5 mph93%30.63 "HgN/A
5:20 AM34 °FPassing clouds.6 mph93%30.63 "HgN/A
4:50 AM32 °FPassing clouds.3 mph100%30.63 "HgN/A
4:20 AM30 °FPassing clouds.3 mph100%30.63 "HgN/A
3:50 AM30 °FPassing clouds.5 mph86%30.63 "HgN/A
3:20 AM32 °FFog.5 mph93%30.63 "HgN/A
2:50 AM32 °FFog.3 mph93%30.63 "HgN/A
2:20 AM34 °FClear.5 mph87%30.63 "Hg10 mi
1:50 AM34 °FFog.3 mph93%30.63 "HgN/A
1:20 AM36 °FPassing clouds.3 mph87%30.63 "HgN/A
12:50 AM36 °FClear.3 mph87%30.63 "Hg10 mi
12:20 AM36 °FPassing clouds.3 mph87%30.63 "HgN/A
11:50 PM
Thu, Mar 5
37 °FPassing clouds.2 mph81%30.63 "HgN/A
11:20 PM37 °FPassing clouds.3 mph81%30.63 "HgN/A
10:50 PM39 °FClear.2 mph75%30.66 "Hg10 mi
10:20 PM39 °FPassing clouds.1 mph75%30.63 "HgN/A
9:20 PM41 °FClear.2 mph76%30.63 "Hg10 mi
Weather by CustomWeather, © 2015

See weather overviewHow to use our weather pages